Location: Lakeview Terrace
(41.4931°N, 81.7101°W)
Time: 20:29:16
(UTC+00:00)

SL-08 R/B - Pass Details

Date: 29 October 2020
Orbit: 946 x 994 km, 83.0° (Epoch: 02 December)

Event Time Altitude Azimuth Distance (km) Brightness Sun altitude
Rises 23:15:37 0° 356° (N) 3,653 7.5 -10.1°
Reaches altitude 10° 23:18:12 10° 360° (N) 2,697 6.7 -10.5°
Maximum altitude 23:24:16 60° 80° (E) 1,083 4.5 -11.7°
Drops below altitude 10° 23:30:16 10° 159° (SSE) 2,659 6.7 -12.8°
Sets 23:32:46 0° 163° (SSE) 3,599 7.4 -13.2°
